Location: Contre
(49.7477°N, 2.0963°E)
Time: 00:42:07
(UTC+00:00)

Envisat - Pass Details

Date: 29 February 2024
Orbit: 762 x 764 km, 98.3° (Epoch: 12 April)

Event Time Altitude Azimuth Distance (km) Brightness Sun altitude
Rises 02:38:24 0° 21° (NNE) 3,242 7.0 -37.2°
Reaches altitude 10° 02:40:56 10° 31° (NNE) 2,311 6.1 -36.9°
Enters shadow 02:44:00 28° 61° (ENE) 1,409 4.8 -36.5°
